• In Slovakia
  • List of Countries
  • For 7 days
  • Water Temperature
  • Satellite Maps
  • Weather Map
  • Weather Widgets
  • user-avatar
    Login

    Hourly Weather Kerns

    Today, 16 October, Tuesday

    Time Temperature Precipitation Wind Pressure Humidity
    00:00 +26°C° 0 mm 2 mps 760 mmHg 93%
    01:00 +26°C° 0 mm 2 mps 759 mmHg 93%
    02:00 +26°C° 0 mm 2 mps 759 mmHg 94%
    03:00 +25°C° 0 mm 1 mps 759 mmHg 94%
    04:00 +25°C° 0 mm 1 mps 759 mmHg 95%
    05:00 +25°C° 0 mm 1 mps 759 mmHg 93%
    06:00 +26°C° 0 mm 1 mps 760 mmHg 91%
    07:00 +26°C° 0 mm 1 mps 760 mmHg 88%
    08:00 +29°C° 0 mm 1 mps 760 mmHg 74%
    09:00 +32°C° 0 mm 1 mps 760 mmHg 60%
    10:00 +35°C° 0 mm 1 mps 761 mmHg 46%
    11:00 +36°C° 0 mm 2 mps 760 mmHg 44%
    12:00 +37°C° 0 mm 2 mps 760 mmHg 42%
    13:00 +37°C° 0 mm 3 mps 759 mmHg 40%
    14:00 +36°C° 0.1 mm 3 mps 759 mmHg 44%
    15:00 +35°C° 0.1 mm 3 mps 758 mmHg 48%
    16:00 +34°C° 0.1 mm 3 mps 758 mmHg 52%
    17:00 +31°C° 0.1 mm 2 mps 758 mmHg 61%
    18:00 +29°C° 0.1 mm 2 mps 758 mmHg 69%
    19:00 +27°C° 0.1 mm 2 mps 758 mmHg 77%
    20:00 +27°C° 0 mm 1 mps 759 mmHg 81%
    21:00 +26°C° 0 mm 1 mps 759 mmHg 85%
    22:00 +25°C° 0 mm 1 mps 759 mmHg 89%
    23:00 +25°C° 0 mm 1 mps 759 mmHg 90%

    Tomorrow, 17 October, Wednesday

    Time Temperature Precipitation Wind Pressure Humidity
    00:00 +25°C° 0 mm 1 mps 759 mmHg 91%
    01:00 +22°C° 0 mm 0 mps 759 mmHg 92%
    02:00 +22°C° 0 mm 0 mps 759 mmHg 91%
    03:00 +22°C° 0 mm 0 mps 758 mmHg 90%
    04:00 +22°C° 0 mm 0 mps 758 mmHg 89%
    05:00 +22°C° 0 mm 0 mps 759 mmHg 83%
    06:00 +23°C° 0 mm 0 mps 759 mmHg 77%
    07:00 +24°C° 0 mm 0 mps 759 mmHg 71%
    08:00 +29°C° 0 mm 1 mps 759 mmHg 60%
    09:00 +32°C° 0 mm 1 mps 759 mmHg 48%
    10:00 +36°C° 0 mm 2 mps 759 mmHg 37%
    11:00 +36°C° 0 mm 2 mps 759 mmHg 37%
    12:00 +37°C° 0 mm 2 mps 758 mmHg 37%
    13:00 +37°C° 0 mm 3 mps 758 mmHg 37%
    14:00 +36°C° 0 mm 3 mps 757 mmHg 42%
    15:00 +35°C° 0 mm 3 mps 757 mmHg 46%
    16:00 +34°C° 0 mm 3 mps 756 mmHg 51%
    17:00 +31°C° 0.1 mm 3 mps 757 mmHg 60%
    18:00 +29°C° 0.1 mm 2 mps 757 mmHg 69%
    19:00 +26°C° 0.1 mm 2 mps 758 mmHg 79%
    20:00 +26°C° 0 mm 2 mps 758 mmHg 82%
    21:00 +25°C° 0 mm 1 mps 759 mmHg 84%
    22:00 +25°C° 0 mm 1 mps 759 mmHg 87%
    23:00 +25°C° 0 mm 1 mps 759 mmHg 89%

    Day after tomorrow, 18 October, Thursday

    Time Temperature Precipitation Wind Pressure Humidity
    00:00 +24°C° 0 mm 1 mps 758 mmHg 90%
    01:00 +24°C° 0 mm 1 mps 758 mmHg 91%
    02:00 +24°C° 0 mm 1 mps 758 mmHg 91%
    03:00 +24°C° 0 mm 1 mps 758 mmHg 91%
    04:00 +23°C° 0 mm 1 mps 757 mmHg 92%
    05:00 +24°C° 0 mm 1 mps 758 mmHg 87%
    06:00 +25°C° 0 mm 1 mps 758 mmHg 82%
    07:00 +26°C° 0 mm 1 mps 759 mmHg 78%
    08:00 +28°C° 0 mm 1 mps 759 mmHg 67%
    09:00 +31°C° 0 mm 2 mps 759 mmHg 57%
    10:00 +34°C° 0 mm 2 mps 760 mmHg 46%
    11:00 +35°C° 0 mm 2 mps 759 mmHg 44%
    12:00 +36°C° 0 mm 3 mps 759 mmHg 43%
    13:00 +36°C° 0 mm 3 mps 758 mmHg 41%
    14:00 +35°C° 0 mm 3 mps 758 mmHg 46%
    15:00 +34°C° 0 mm 3 mps 758 mmHg 51%
    16:00 +33°C° 0 mm 3 mps 757 mmHg 56%
    17:00 +31°C° 0 mm 3 mps 758 mmHg 65%
    18:00 +29°C° 0 mm 2 mps 758 mmHg 74%
    19:00 +27°C° 0 mm 2 mps 759 mmHg 83%
    20:00 +27°C° 0.1 mm 2 mps 759 mmHg 87%
    21:00 +26°C° 0.1 mm 2 mps 760 mmHg 91%
    22:00 +25°C° 0.1 mm 2 mps 760 mmHg 94%
    23:00 +25°C° 0 mm 2 mps 760 mmHg 94%

    19 October, Friday

    Time Temperature Precipitation Wind Pressure Humidity
    00:00 +25°C° 0 mm 1 mps 760 mmHg 94%
    01:00 +25°C° 0 mm 1 mps 759 mmHg 94%
    02:00 +24°C° 0 mm 1 mps 759 mmHg 94%
    03:00 +24°C° 0 mm 1 mps 759 mmHg 93%
    04:00 +24°C° 0 mm 1 mps 759 mmHg 93%
    05:00 +24°C° 0 mm 1 mps 759 mmHg 90%
    06:00 +25°C° 0 mm 2 mps 760 mmHg 87%
    07:00 +26°C° 0 mm 2 mps 761 mmHg 84%
    08:00 +28°C° 0 mm 2 mps 761 mmHg 73%
    09:00 +31°C° 0 mm 3 mps 761 mmHg 62%
    10:00 +34°C° 0 mm 3 mps 761 mmHg 52%
    11:00 +35°C° 0 mm 3 mps 760 mmHg 48%
    12:00 +36°C° 0 mm 3 mps 760 mmHg 44%
    13:00 +37°C° 0 mm 3 mps 759 mmHg 41%
    14:00 +36°C° 0 mm 3 mps 759 mmHg 44%
    15:00 +35°C° 0 mm 4 mps 758 mmHg 48%
    16:00 +35°C° 0 mm 4 mps 758 mmHg 51%
    17:00 +31°C° 0 mm 3 mps 758 mmHg 62%
    18:00 +29°C° 0 mm 3 mps 759 mmHg 74%
    19:00 +27°C° 0 mm 3 mps 760 mmHg 85%
    20:00 +27°C° 0 mm 3 mps 760 mmHg 87%
    21:00 +26°C° 0 mm 3 mps 761 mmHg 90%
    22:00 +26°C° 0 mm 3 mps 761 mmHg 93%
    23:00 +25°C° 0 mm 2 mps 761 mmHg 93%

    20 October, Saturday

    Time Temperature Precipitation Wind Pressure Humidity
    00:00 +25°C° 0 mm 2 mps 760 mmHg 94%
    01:00 +25°C° 0 mm 2 mps 760 mmHg 95%
    02:00 +24°C° 0 mm 2 mps 759 mmHg 95%
    03:00 +24°C° 0 mm 2 mps 759 mmHg 96%
    04:00 +23°C° 0 mm 2 mps 759 mmHg 96%
    05:00 +24°C° 0 mm 2 mps 760 mmHg 91%
    06:00 +25°C° 0 mm 2 mps 760 mmHg 87%
    07:00 +26°C° 0 mm 3 mps 761 mmHg 82%
    08:00 +28°C° 0 mm 3 mps 761 mmHg 70%
    09:00 +31°C° 0 mm 3 mps 761 mmHg 59%
    10:00 +34°C° 0 mm 3 mps 761 mmHg 48%
    11:00 +35°C° 0 mm 3 mps 761 mmHg 45%
    12:00 +36°C° 0 mm 4 mps 760 mmHg 43%
    13:00 +37°C° 0 mm 4 mps 759 mmHg 40%
    14:00 +36°C° 0 mm 4 mps 759 mmHg 43%
    15:00 +35°C° 0 mm 4 mps 758 mmHg 46%
    16:00 +35°C° 0 mm 4 mps 758 mmHg 48%
    17:00 +31°C° 0 mm 3 mps 759 mmHg 60%
    18:00 +29°C° 0 mm 3 mps 759 mmHg 71%
    19:00 +27°C° 0 mm 3 mps 760 mmHg 82%
    20:00 +26°C° 0 mm 3 mps 760 mmHg 86%
    21:00 +25°C° 0 mm 3 mps 760 mmHg 90%
    22:00 +24°C° 0 mm 3 mps 761 mmHg 94%
    23:00 +24°C° 0 mm 2 mps 760 mmHg 95%

    21 October, Sunday

    Time Temperature Precipitation Wind Pressure Humidity
    00:00 +24°C° 0 mm 2 mps 760 mmHg 95%
    01:00 +24°C° 0 mm 2 mps 759 mmHg 96%
    02:00 +24°C° 0 mm 2 mps 759 mmHg 96%
    03:00 +24°C° 0 mm 2 mps 759 mmHg 95%
    04:00 +24°C° 0 mm 1 mps 759 mmHg 95%
    05:00 +25°C° 0 mm 2 mps 760 mmHg 91%
    06:00 +25°C° 0 mm 2 mps 760 mmHg 87%
    07:00 +26°C° 0 mm 2 mps 761 mmHg 83%
    08:00 +29°C° 0 mm 2 mps 760 mmHg 69%
    09:00 +31°C° 0 mm 2 mps 760 mmHg 56%
    10:00 +35°C° 0 mm 2 mps 760 mmHg 42%
    11:00 +36°C° 0 mm 2 mps 760 mmHg 39%
    12:00 +37°C° 0 mm 2 mps 759 mmHg 35%
    13:00 +39°C° 0 mm 2 mps 758 mmHg 31%
    14:00 +38°C° 0 mm 3 mps 758 mmHg 34%
    15:00 +37°C° 0 mm 3 mps 757 mmHg 37%
    16:00 +36°C° 0 mm 3 mps 757 mmHg 40%
    17:00 +34°C° 0 mm 3 mps 757 mmHg 54%
    18:00 +30°C° 0 mm 3 mps 758 mmHg 67%
    19:00 +27°C° 0 mm 2 mps 758 mmHg 81%
    20:00 +26°C° 0 mm 2 mps 759 mmHg 85%
    21:00 +26°C° 0 mm 2 mps 759 mmHg 89%
    22:00 +25°C° 0 mm 1 mps 760 mmHg 93%
    23:00 +25°C° 0 mm 1 mps 759 mmHg 94%
    Show more